SWA1240 KMAF-KDAL

Flight info

Callsign SWA1240
Flight time 1h 1m
Altitude 35000
Route BGTOE BACHR4
Aircraft B38M/M-VGDW/C

Departure

Time 2026-04-28 17:43
Airport Midland International Air and Space Port (KMAF)

Arrival

Time 2026-04-28 18:44
Airport Dallas Love Field (KDAL)
Time Latitude Longitude Altitude Speed Heading
2026-04-28 17:23 31.93777 -102.20682 2872 ft 0 kts 267°
2026-04-28 17:32 31.93777 -102.20681 2872 ft 1 kts 267°
2026-04-28 17:33 31.93778 -102.20660 2872 ft 3 kts 267°
2026-04-28 17:33 31.93779 -102.20638 2872 ft 3 kts 258°
2026-04-28 17:33 31.93787 -102.20618 2872 ft 3 kts 227°
2026-04-28 17:33 31.93791 -102.20612 2872 ft 3 kts 217°
2026-04-28 17:34 31.93814 -102.20603 2872 ft 0 kts 182°
2026-04-28 17:40 31.93807 -102.20603 2872 ft 5 kts 182°
2026-04-28 17:40 31.93766 -102.20564 2873 ft 11 kts 81°
2026-04-28 17:40 31.93824 -102.20464 2872 ft 20 kts 80°
2026-04-28 17:40 31.93830 -102.20283 2872 ft 23 kts 91°
2026-04-28 17:41 31.93828 -102.20083 2871 ft 26 kts 91°
2026-04-28 17:41 31.93826 -102.19858 2867 ft 29 kts 90°
2026-04-28 17:41 31.93825 -102.19651 2866 ft 21 kts 90°
2026-04-28 17:41 31.93870 -102.19487 2867 ft 22 kts 52°
2026-04-28 17:42 31.93967 -102.19497 2867 ft 17 kts 294°
2026-04-28 17:42 31.94056 -102.19731 2872 ft 64 kts 294°
2026-04-28 17:42 31.94347 -102.20510 2871 ft 139 kts 293°
2026-04-28 17:42 31.94818 -102.21732 3104 ft 179 kts 294°
2026-04-28 17:43 31.95399 -102.23080 3743 ft 198 kts 306°
2026-04-28 17:43 31.96576 -102.24124 4248 ft 230 kts 339°
2026-04-28 17:43 31.98243 -102.24320 4802 ft 256 kts
2026-04-28 17:43 31.99858 -102.23402 5278 ft 257 kts 45°
2026-04-28 17:44 32.00695 -102.21603 5875 ft 256 kts 78°
2026-04-28 17:44 32.00975 -102.19498 6494 ft 265 kts 83°
2026-04-28 17:44 32.01226 -102.17321 6833 ft 270 kts 82°
2026-04-28 17:44 32.01480 -102.15124 6938 ft 270 kts 83°
2026-04-28 17:45 32.01735 -102.12925 7292 ft 274 kts 82°
2026-04-28 17:45 32.01996 -102.10671 7941 ft 282 kts 83°
2026-04-28 17:45 32.02205 -102.08351 8593 ft 286 kts 85°
2026-04-28 17:45 32.02387 -102.06000 9245 ft 289 kts 85°
2026-04-28 17:46 32.02575 -102.03628 9901 ft 292 kts 85°
2026-04-28 17:46 32.02768 -102.01232 10551 ft 295 kts 85°
2026-04-28 17:46 32.02964 -101.98816 11208 ft 298 kts 85°
2026-04-28 17:46 32.03167 -101.96318 11814 ft 314 kts 85°
2026-04-28 17:47 32.03380 -101.93694 12399 ft 329 kts 85°
2026-04-28 17:47 32.03604 -101.90920 13028 ft 339 kts 85°
2026-04-28 17:47 32.03829 -101.88137 13874 ft 345 kts 85°
2026-04-28 17:47 32.03981 -101.86250 14243 ft 353 kts 85°
2026-04-28 17:48 32.04295 -101.82334 15035 ft 364 kts 85°
2026-04-28 17:48 32.04534 -101.79345 15648 ft 368 kts 85°
2026-04-28 17:48 32.04775 -101.76325 16401 ft 371 kts 85°
2026-04-28 17:48 32.05017 -101.73286 17093 ft 376 kts 85°
2026-04-28 17:49 32.05262 -101.70203 17760 ft 379 kts 85°
2026-04-28 17:49 32.05507 -101.67092 18414 ft 383 kts 85°
2026-04-28 17:49 32.05755 -101.63954 19044 ft 387 kts 85°
2026-04-28 17:49 32.06005 -101.60771 19659 ft 390 kts 85°
2026-04-28 17:50 32.06255 -101.57573 20261 ft 394 kts 85°
2026-04-28 17:50 32.06507 -101.54342 20836 ft 398 kts 85°
2026-04-28 17:50 32.06761 -101.51083 21396 ft 401 kts 85°
2026-04-28 17:50 32.07016 -101.47788 21941 ft 404 kts 85°
2026-04-28 17:51 32.07272 -101.44477 22476 ft 408 kts 85°
2026-04-28 17:51 32.07530 -101.41131 23003 ft 411 kts 85°
2026-04-28 17:51 32.07788 -101.37757 23513 ft 414 kts 85°
2026-04-28 17:51 32.08048 -101.34361 24002 ft 418 kts 85°
2026-04-28 17:52 32.08309 -101.30942 24484 ft 421 kts 85°
2026-04-28 17:52 32.08570 -101.27491 24958 ft 424 kts 85°
2026-04-28 17:52 32.09097 -101.20522 25848 ft 430 kts 85°
2026-04-28 17:53 32.09361 -101.17002 26276 ft 432 kts 85°
2026-04-28 17:53 32.09626 -101.13461 26725 ft 434 kts 85°
2026-04-28 17:53 32.09889 -101.09923 27271 ft 433 kts 85°
2026-04-28 17:53 32.10152 -101.06387 27804 ft 432 kts 85°
2026-04-28 17:54 32.10413 -101.02858 28319 ft 431 kts 85°
2026-04-28 17:54 32.10672 -100.99343 28799 ft 431 kts 85°
2026-04-28 17:54 32.10931 -100.95808 28995 ft 435 kts 85°
2026-04-28 17:54 32.11194 -100.92212 29004 ft 443 kts 85°
2026-04-28 17:55 32.11722 -100.84943 29124 ft 446 kts 85°
2026-04-28 17:55 32.11985 -100.81304 29581 ft 445 kts 85°
2026-04-28 17:55 32.12246 -100.77671 30064 ft 444 kts 85°
2026-04-28 17:56 32.12506 -100.74046 30516 ft 443 kts 85°
2026-04-28 17:56 32.12764 -100.70422 30959 ft 442 kts 85°
2026-04-28 17:56 32.13021 -100.66813 31389 ft 442 kts 85°
2026-04-28 17:56 32.13277 -100.63198 31812 ft 441 kts 85°
2026-04-28 17:57 32.13531 -100.59597 32229 ft 440 kts 85°
2026-04-28 17:57 32.13783 -100.56003 32618 ft 439 kts 85°
2026-04-28 17:57 32.14034 -100.52410 33009 ft 439 kts 85°
2026-04-28 17:57 32.14284 -100.48826 33383 ft 438 kts 85°
2026-04-28 17:58 32.14532 -100.45248 33753 ft 437 kts 85°
2026-04-28 17:58 32.14779 -100.41672 34107 ft 437 kts 85°
2026-04-28 17:58 32.15024 -100.38109 34450 ft 436 kts 85°
2026-04-28 17:58 32.15268 -100.34546 34790 ft 435 kts 85°
2026-04-28 17:59 32.15511 -100.30974 35013 ft 437 kts 85°
2026-04-28 17:59 32.15754 -100.27406 35010 ft 435 kts 85°
2026-04-28 17:59 32.16233 -100.20314 35008 ft 435 kts 85°
2026-04-28 18:00 32.16716 -100.13093 34996 ft 447 kts 85°
2026-04-28 18:00 32.17205 -100.05726 34997 ft 451 kts 85°
2026-04-28 18:01 32.17690 -99.98344 34997 ft 451 kts 86°
2026-04-28 18:01 32.18172 -99.90948 34997 ft 455 kts 86°
2026-04-28 18:02 32.18580 -99.83421 35003 ft 456 kts 91°
2026-04-28 18:02 32.18515 -99.75925 34999 ft 457 kts 91°
2026-04-28 18:03 32.18441 -99.68432 34998 ft 456 kts 91°
2026-04-28 18:03 32.18363 -99.60981 35007 ft 456 kts 91°
2026-04-28 18:04 32.18279 -99.53484 35006 ft 457 kts 91°
2026-04-28 18:04 32.18190 -99.45937 35000 ft 457 kts 91°
2026-04-28 18:05 32.18114 -99.39713 34998 ft 457 kts 91°
2026-04-28 18:05 32.18001 -99.30956 35007 ft 457 kts 91°
2026-04-28 18:06 32.17900 -99.23459 34998 ft 457 kts 91°
2026-04-28 18:06 32.17795 -99.15970 35002 ft 457 kts 91°
2026-04-28 18:07 32.17685 -99.08474 34998 ft 457 kts 91°
2026-04-28 18:07 32.17570 -99.00986 35007 ft 457 kts 91°
2026-04-28 18:08 32.17451 -98.93481 34998 ft 457 kts 91°
2026-04-28 18:08 32.17328 -98.85985 34998 ft 457 kts 91°
2026-04-28 18:09 32.17201 -98.78485 34998 ft 457 kts 91°
2026-04-28 18:09 32.17498 -98.71011 34870 ft 457 kts 84°
2026-04-28 18:10 32.17832 -98.67333 34451 ft 456 kts 84°
2026-04-28 18:10 32.18168 -98.63568 34025 ft 456 kts 84°
2026-04-28 18:10 32.18501 -98.59840 33597 ft 457 kts 84°
2026-04-28 18:10 32.18720 -98.57377 33314 ft 457 kts 84°
2026-04-28 18:11 32.19051 -98.53637 32885 ft 458 kts 84°
2026-04-28 18:11 32.19382 -98.49898 32457 ft 459 kts 84°
2026-04-28 18:11 32.19715 -98.46143 32028 ft 460 kts 84°
2026-04-28 18:11 32.20048 -98.42385 31603 ft 461 kts 84°
2026-04-28 18:12 32.20382 -98.38615 31173 ft 462 kts 84°
2026-04-28 18:12 32.20714 -98.34842 30736 ft 463 kts 84°
2026-04-28 18:12 32.21046 -98.31066 30305 ft 463 kts 84°
2026-04-28 18:12 32.21377 -98.27278 29875 ft 464 kts 84°
2026-04-28 18:13 32.21708 -98.23483 29443 ft 465 kts 84°
2026-04-28 18:13 32.22039 -98.19676 29079 ft 466 kts 84°
2026-04-28 18:13 32.22699 -98.12040 28991 ft 469 kts 84°
2026-04-28 18:14 32.23356 -98.04386 28482 ft 468 kts 84°
2026-04-28 18:14 32.23683 -98.00560 28051 ft 468 kts 84°
2026-04-28 18:14 32.24009 -97.96732 27618 ft 469 kts 84°
2026-04-28 18:15 32.24333 -97.92901 27187 ft 470 kts 84°
2026-04-28 18:15 32.24658 -97.89055 26753 ft 471 kts 84°
2026-04-28 18:15 32.24983 -97.85201 26317 ft 471 kts 84°
2026-04-28 18:15 32.25299 -97.81348 25887 ft 472 kts 84°
2026-04-28 18:16 32.25615 -97.77474 25453 ft 472 kts 84°
2026-04-28 18:16 32.25928 -97.73620 25027 ft 470 kts 85°
2026-04-28 18:16 32.26239 -97.69785 24603 ft 468 kts 85°
2026-04-28 18:16 32.26547 -97.65973 24174 ft 465 kts 85°
2026-04-28 18:17 32.26851 -97.62189 23748 ft 462 kts 85°
2026-04-28 18:17 32.27153 -97.58424 23322 ft 459 kts 85°
2026-04-28 18:17 32.27452 -97.54679 22895 ft 456 kts 85°
2026-04-28 18:17 32.27749 -97.50965 22465 ft 453 kts 84°
2026-04-28 18:18 32.28437 -97.47355 22021 ft 450 kts 68°
2026-04-28 18:18 32.29813 -97.44054 21621 ft 447 kts 63°
2026-04-28 18:18 32.31186 -97.40767 21185 ft 442 kts 64°
2026-04-28 18:18 32.32091 -97.38583 20893 ft 436 kts 64°
2026-04-28 18:19 32.33836 -97.34368 20303 ft 425 kts 64°
2026-04-28 18:19 32.35126 -97.31251 19851 ft 419 kts 64°
2026-04-28 18:19 32.36393 -97.28184 19403 ft 413 kts 64°
2026-04-28 18:19 32.37647 -97.25149 18951 ft 407 kts 64°
2026-04-28 18:20 32.38871 -97.22156 18501 ft 402 kts 64°
2026-04-28 18:20 32.40080 -97.19190 18046 ft 398 kts 64°
2026-04-28 18:20 32.41275 -97.16258 17593 ft 394 kts 64°
2026-04-28 18:20 32.42459 -97.13350 17137 ft 390 kts 64°
2026-04-28 18:21 32.43628 -97.10475 16686 ft 387 kts 64°
2026-04-28 18:21 32.44792 -97.07613 16232 ft 383 kts 64°
2026-04-28 18:21 32.45925 -97.04773 15780 ft 380 kts 65°
2026-04-28 18:21 32.47044 -97.01946 15334 ft 378 kts 65°
2026-04-28 18:22 32.48154 -96.99132 14783 ft 380 kts 63°
2026-04-28 18:22 32.49293 -96.96258 14322 ft 377 kts 65°
2026-04-28 18:22 32.50399 -96.93455 13870 ft 375 kts 65°
2026-04-28 18:22 32.51497 -96.90670 13414 ft 372 kts 65°
2026-04-28 18:23 32.52609 -96.87922 12963 ft 369 kts 64°
2026-04-28 18:23 32.53736 -96.85203 12509 ft 366 kts 64°
2026-04-28 18:23 32.54842 -96.82533 12063 ft 364 kts 64°
2026-04-28 18:23 32.55952 -96.79854 11610 ft 361 kts 64°
2026-04-28 18:24 32.57113 -96.77212 10990 ft 358 kts 57°
2026-04-28 18:24 32.58109 -96.75627 10986 ft 355 kts 51°
2026-04-28 18:24 32.60137 -96.72586 10976 ft 355 kts 51°
2026-04-28 18:24 32.61657 -96.70273 10965 ft 354 kts 52°
2026-04-28 18:25 32.63152 -96.67981 10939 ft 342 kts 52°
2026-04-28 18:25 32.64607 -96.65743 10589 ft 342 kts 52°
2026-04-28 18:25 32.66152 -96.63596 10164 ft 343 kts 38°
2026-04-28 18:26 32.70520 -96.62316 9298 ft 324 kts 340°
2026-04-28 18:26 32.72516 -96.63429 8895 ft 315 kts 326°
2026-04-28 18:26 32.74493 -96.64544 8504 ft 311 kts 332°
2026-04-28 18:26 32.76450 -96.65552 8120 ft 301 kts 332°
2026-04-28 18:27 32.78351 -96.66512 7745 ft 293 kts 333°
2026-04-28 18:27 32.80200 -96.67432 7356 ft 285 kts 333°
2026-04-28 18:27 32.81949 -96.68430 6967 ft 273 kts 321°
2026-04-28 18:27 32.83376 -96.69840 6611 ft 263 kts 314°
2026-04-28 18:28 32.84716 -96.71295 6256 ft 259 kts 314°
2026-04-28 18:28 32.86041 -96.72735 5883 ft 257 kts 314°
2026-04-28 18:28 32.87354 -96.74161 5510 ft 255 kts 314°
2026-04-28 18:28 32.88690 -96.75613 5149 ft 258 kts 315°
2026-04-28 18:29 32.90019 -96.77057 4788 ft 260 kts 315°
2026-04-28 18:29 32.91357 -96.78511 4425 ft 261 kts 315°
2026-04-28 18:29 32.92699 -96.79967 4101 ft 260 kts 315°
2026-04-28 18:29 32.94021 -96.81400 3915 ft 255 kts 314°
2026-04-28 18:30 32.95325 -96.82814 3562 ft 251 kts 315°
2026-04-28 18:30 32.95759 -96.83286 3446 ft 250 kts 315°
2026-04-28 18:30 32.97127 -96.85998 3038 ft 219 kts 266°
2026-04-28 18:30 32.96617 -96.87598 2970 ft 204 kts 231°
2026-04-28 18:31 32.95680 -96.88822 2900 ft 198 kts 226°
2026-04-28 18:31 32.94726 -96.89986 2780 ft 194 kts 225°
2026-04-28 18:31 32.93572 -96.90819 2564 ft 193 kts 197°
2026-04-28 18:31 32.92260 -96.90867 2406 ft 195 kts 172°
2026-04-28 18:32 32.90935 -96.90489 2181 ft 195 kts 168°
2026-04-28 18:32 32.89644 -96.89969 1823 ft 196 kts 157°
2026-04-28 18:32 32.88592 -96.89059 1658 ft 178 kts 141°
2026-04-28 18:32 32.87723 -96.88030 1276 ft 172 kts 138°
2026-04-28 18:33 32.86909 -96.87071 941 ft 156 kts 137°
2026-04-28 18:33 32.86156 -96.86177 682 ft 147 kts 138°
2026-04-28 18:33 32.85445 -96.85342 498 ft 140 kts 140°
2026-04-28 18:33 32.84650 -96.84461 813 ft 169 kts 138°
2026-04-28 18:34 32.83774 -96.83439 1077 ft 189 kts 137°
2026-04-28 18:34 32.82808 -96.82246 1299 ft 208 kts 135°
2026-04-28 18:34 32.81811 -96.80970 1837 ft 214 kts 136°
2026-04-28 18:34 32.80810 -96.79639 2445 ft 218 kts 135°
2026-04-28 18:35 32.79828 -96.78231 3048 ft 227 kts 126°
2026-04-28 18:35 32.79271 -96.76402 3549 ft 250 kts 101°
2026-04-28 18:35 32.79269 -96.74293 3720 ft 260 kts 84°
2026-04-28 18:35 32.79500 -96.72134 3826 ft 265 kts 83°
2026-04-28 18:36 32.79874 -96.69992 3877 ft 266 kts 65°
2026-04-28 18:36 32.81055 -96.68383 3946 ft 259 kts 27°
2026-04-28 18:36 32.82751 -96.67887 3943 ft 251 kts 351°
2026-04-28 18:36 32.84322 -96.68625 3963 ft 243 kts 320°
2026-04-28 18:37 32.85658 -96.69867 3957 ft 244 kts 317°
2026-04-28 18:37 32.86964 -96.71152 3957 ft 243 kts 316°
2026-04-28 18:37 32.88239 -96.72468 3945 ft 244 kts 316°
2026-04-28 18:37 32.89527 -96.73790 3952 ft 244 kts 315°
2026-04-28 18:38 32.90807 -96.75105 3958 ft 243 kts 315°
2026-04-28 18:38 32.92093 -96.76412 3959 ft 244 kts 315°
2026-04-28 18:38 32.93371 -96.77747 3974 ft 244 kts 315°
2026-04-28 18:38 32.94647 -96.79067 3959 ft 243 kts 315°
2026-04-28 18:39 32.95937 -96.80377 3957 ft 244 kts 315°
2026-04-28 18:39 32.97221 -96.81702 3966 ft 243 kts 316°
2026-04-28 18:39 32.98497 -96.83013 3750 ft 240 kts 315°
2026-04-28 18:39 32.99752 -96.84291 3422 ft 233 kts 314°
2026-04-28 18:40 33.00543 -96.85853 3125 ft 215 kts 276°
2026-04-28 18:40 33.00255 -96.87492 2998 ft 204 kts 236°
2026-04-28 18:40 32.99327 -96.88792 2995 ft 207 kts 226°
2026-04-28 18:40 32.98376 -96.89997 2939 ft 193 kts 226°
2026-04-28 18:41 32.97467 -96.91154 2785 ft 190 kts 227°
2026-04-28 18:41 32.96503 -96.92207 2584 ft 188 kts 211°
2026-04-28 18:41 32.95326 -96.92868 2422 ft 187 kts 204°
2026-04-28 18:41 32.94067 -96.93201 2216 ft 186 kts 177°
2026-04-28 18:42 32.92829 -96.92859 2119 ft 183 kts 167°
2026-04-28 18:42 32.91636 -96.92336 1955 ft 184 kts 154°
2026-04-28 18:42 32.90617 -96.91381 1763 ft 190 kts 140°
2026-04-28 18:42 32.89695 -96.90277 1650 ft 184 kts 139°
2026-04-28 18:43 32.88796 -96.89225 1433 ft 178 kts 139°
2026-04-28 18:43 32.87922 -96.88216 1170 ft 171 kts 137°
2026-04-28 18:43 32.87355 -96.87561 999 ft 167 kts 137°
2026-04-28 18:43 32.86260 -96.86293 692 ft 164 kts 139°
2026-04-28 18:44 32.85714 -96.85660 534 ft 158 kts 138°
2026-04-28 18:44 32.84611 -96.84385 484 ft 46 kts 136°
2026-04-28 18:44 32.84465 -96.84243 479 ft 9 kts 195°
2026-04-28 18:45 32.84416 -96.84309 476 ft 10 kts 241°
2026-04-28 18:45 32.84444 -96.84374 479 ft 10 kts 315°
2026-04-28 18:45 32.84503 -96.84442 482 ft 13 kts 315°
2026-04-28 18:45 32.84576 -96.84527 483 ft 16 kts 316°
2026-04-28 18:46 32.84664 -96.84626 484 ft 19 kts 316°
2026-04-28 18:46 32.84762 -96.84740 475 ft 15 kts 313°
2026-04-28 18:46 32.84755 -96.84836 481 ft 13 kts 226°
2026-04-28 18:46 32.84746 -96.84919 484 ft 10 kts 273°
2026-04-28 18:47 32.84746 -96.85006 484 ft 10 kts 253°
2026-04-28 18:47 32.84700 -96.85042 479 ft 7 kts 179°
2026-04-28 18:47 32.84658 -96.85042 481 ft 5 kts 180°
2026-04-28 18:47 32.84652 -96.85042 482 ft 0 kts 181°